Zurück zum Katalog

THORAD AGENA D DEB

AktivLEO
NORAD 4748·DEBRIS·🇺🇸 United States

Gestartet Apr 8, 1970 von Vandenberg Space Force Base

Loading…

Nächste Überflüge (nächste 24 Stunden)

TLE

AktuellSource: Space-Track

Epoche: Sep 14, 2026, 18:50 UTC

1 04748U 70025CW  26257.78478107  .00000230  00000-0  34672-3 0  9991
2 04748 100.1295  79.2744 0005254 254.5213 105.5348 13.64583066795171

Verfolge THORAD AGENA D DEB in Echtzeit mit AllMySat

Download on the App Store